Location: ??????
(38.5153°N, 23.0340°E)
Time: 14:53:59
(UTC+00:00)

SKYMED 2 - Pass Details

Date: 13 December 2025
Orbit: 622 x 623 km, 97.9° (Epoch: 17 January)

Event Time Altitude Azimuth Distance (km) Brightness Sun altitude
Exits shadow 15:57:30 - 26° (NNE) 2,430 6.2 -9.7°
Reaches altitude 10° 15:58:38 10° 32° (NNE) 1,998 5.7 -9.9°
Maximum altitude 16:02:36 34° 98° (E) 1,030 4.2 -10.6°
Drops below altitude 10° 16:06:32 10° 163° (SSE) 1,983 6.2 -11.3°
Sets 16:08:52 0° 173° (S) 2,884 7.2 -11.7°
